| time (UTC) | temp F | wind direction | speed MPH | gust MPH | rain 1hr in | rain 24hr in | rain mn in | humidity % | barometer mb |
| 20260509223021 | 91 | 170 | 3.0 | 3.0 | 0.00 | 0.00 | 0.00 | 45 | 1007.7 |
| 20260509222516 | 91 | 285 | 0.0 | 4.0 | 0.00 | 0.00 | 0.00 | 46 | 1007.7 |
| 20260509222012 | 90 | 101 | 3.0 | 5.0 | 0.00 | 0.00 | 0.00 | 45 | 1007.8 |
| 20260509221508 | 91 | 221 | 2.0 | 4.0 | 0.00 | 0.00 | 0.00 | 46 | 1007.8 |
| 20260509221004 | 91 | 343 | 1.0 | 3.0 | 0.00 | 0.00 | 0.00 | 46 | 1007.8 |
| 20260509220500 | 91 | 350 | 2.0 | 5.0 | 0.00 | 0.00 | 0.00 | 45 | 1008.0 |
| 20260509215956 | 92 | 251 | 2.0 | 3.0 | 0.00 | 0.00 | 0.00 | 46 | 1007.7 |
| 20260509215452 | 90 | 106 | 4.0 | 4.0 | 0.00 | 0.00 | 0.00 | 44 | 1007.8 |
| 20260509214950 | 92 | 146 | 1.0 | 4.0 | 0.00 | 0.00 | 0.00 | 44 | 1007.9 |
| 20260509214447 | 91 | 275 | 1.0 | 3.0 | 0.00 | 0.00 | 0.00 | 47 | 1007.9 |
| 20260509213943 | 90 | 109 | 3.0 | 3.0 | 0.00 | 0.00 | 0.00 | 47 | 1007.9 |
| 20260509213439 | 89 | 153 | 4.0 | 6.0 | 0.00 | 0.00 | 0.00 | 48 | 1007.9 |
| 20260509212937 | 89 | 267 | 3.0 | 3.0 | 0.00 | 0.00 | 0.00 | 52 | 1008.1 |
| 20260509212434 | 89 | 306 | 2.0 | 4.0 | 0.00 | 0.00 | 0.00 | 49 | 1008.2 |
| 20260509211930 | 90 | 252 | 0.0 | 4.0 | 0.00 | 0.00 | 0.00 | 50 | 1008.1 |
| 20260509211426 | 89 | 48 | 3.0 | 5.0 | 0.00 | 0.00 | 0.00 | 50 | 1008.3 |
| 20260509210922 | 90 | 275 | 2.0 | 5.0 | 0.00 | 0.00 | 0.00 | 53 | 1008.1 |
| 20260509210420 | 90 | 176 | 1.0 | 3.0 | 0.00 | 0.00 | 0.00 | 48 | 1008.4 |
| 20260509205915 | 89 | 323 | 1.0 | 3.0 | 0.00 | 0.00 | 0.00 | 48 | 1008.4 |
| 20260509205415 | 91 | 300 | 3.0 | 4.0 | 0.00 | 0.00 | 0.00 | 50 | 1008.6 |
| 20260509204911 | 89 | 338 | 2.0 | 6.0 | 0.00 | 0.00 | 0.00 | 53 | 1008.5 |
| 20260509204408 | 88 | 229 | 3.0 | 5.0 | 0.00 | 0.00 | 0.00 | 51 | 1008.7 |
| 20260509203904 | 89 | 292 | 4.0 | 4.0 | 0.00 | 0.00 | 0.00 | 53 | 1008.7 |
| 20260509203400 | 89 | 349 | 1.0 | 4.0 | 0.00 | 0.00 | 0.00 | 55 | 1008.9 |
| 20260509202858 | 91 | 8 | 1.0 | 5.0 | 0.00 | 0.00 | 0.00 | 53 | 1009.0 |
| 20260509202353 | 91 | 309 | 1.0 | 3.0 | 0.00 | 0.00 | 0.00 | 52 | 1009.0 |
| 20260509201848 | 89 | 167 | 2.0 | 3.0 | 0.00 | 0.00 | 0.00 | 55 | 1009.1 |
| 20260509201344 | 87 | 312 | 3.0 | 9.0 | 0.00 | 0.00 | 0.00 | 57 | 1009.0 |
| 20260509200841 | 86 | 198 | 3.0 | 6.0 | 0.00 | 0.00 | 0.00 | 60 | 1008.9 |
| 20260509200336 | 86 | 267 | 3.0 | 6.0 | 0.00 | 0.00 | 0.00 | 56 | 1009.0 |
| 20260509195833 | 87 | 286 | 5.0 | 7.0 | 0.00 | 0.00 | 0.00 | 58 | 1009.2 |
| 20260509195333 | 87 | 350 | 3.0 | 4.0 | 0.00 | 0.00 | 0.00 | 57 | 1009.1 |
| 20260509194833 | 87 | 322 | 3.0 | 5.0 | 0.00 | 0.00 | 0.00 | 60 | 1009.3 |
| 20260509194329 | 87 | 353 | 3.0 | 4.0 | 0.00 | 0.00 | 0.00 | 60 | 1009.2 |
| 20260509193826 | 86 | 271 | 4.0 | 5.0 | 0.00 | 0.00 | 0.00 | 61 | 1009.5 |
| 20260509193321 | 85 | 273 | 6.0 | 10.0 | 0.00 | 0.00 | 0.00 | 60 | 1009.7 |
| 20260509192817 | 85 | 260 | 2.0 | 6.0 | 0.00 | 0.00 | 0.00 | 61 | 1009.4 |
| 20260509192313 | 86 | 304 | 4.0 | 6.0 | 0.00 | 0.00 | 0.00 | 63 | 1009.5 |
| 20260509191808 | 86 | 293 | 8.0 | 9.0 | 0.00 | 0.00 | 0.00 | 58 | 1009.5 |
| 20260509191305 | 85 | 10 | 2.0 | 6.0 | 0.00 | 0.00 | 0.00 | 63 | 1009.5 |
| 20260509190800 | 84 | 273 | 6.0 | 9.0 | 0.00 | 0.00 | 0.00 | 61 | 1009.5 |
| 20260509190258 | 84 | 0 | 2.0 | 8.0 | 0.00 | 0.00 | 0.00 | 63 | 1009.5 |
| 20260509185755 | 84 | 298 | 4.0 | 6.0 | 0.00 | 0.00 | 0.00 | 64 | 1009.7 |
| 20260509185251 | 85 | 357 | 3.0 | 8.0 | 0.00 | 0.00 | 0.00 | 62 | 1009.7 |
| 20260509184749 | 84 | 294 | 1.0 | 4.0 | 0.00 | 0.00 | 0.00 | 65 | 1009.7 |
| 20260509184246 | 85 | 325 | 2.0 | 7.0 | 0.00 | 0.00 | 0.00 | 62 | 1009.6 |
| 20260509183742 | 84 | 274 | 3.0 | 6.0 | 0.00 | 0.00 | 0.00 | 65 | 1009.6 |
| 20260509183238 | 83 | 288 | 7.0 | 9.0 | 0.00 | 0.00 | 0.00 | 66 | 1009.7 |
| 20260509182733 | 84 | 308 | 5.0 | 9.0 | 0.00 | 0.00 | 0.00 | 64 | 1009.8 |
| 20260509182231 | 83 | 288 | 3.0 | 7.0 | 0.00 | 0.00 | 0.00 | 66 | 1009.7 |
| 20260509181728 | 83 | 304 | 8.0 | 11.0 | 0.00 | 0.00 | 0.00 | 66 | 1009.9 |
| 20260509181226 | 84 | 289 | 3.0 | 7.0 | 0.00 | 0.00 | 0.00 | 65 | 1009.8 |
| 20260509180723 | 84 | 255 | 2.0 | 5.0 | 0.00 | 0.00 | 0.00 | 66 | 1009.9 |
| 20260509180219 | 84 | 315 | 2.0 | 7.0 | 0.00 | 0.00 | 0.00 | 64 | 1009.9 |
| 20260509175715 | 82 | 296 | 4.0 | 4.0 | 0.00 | 0.00 | 0.00 | 66 | 1009.9 |
| 20260509175212 | 83 | 312 | 5.0 | 7.0 | 0.00 | 0.00 | 0.00 | 66 | 1010.0 |
| 20260509174708 | 83 | 301 | 6.0 | 7.0 | 0.00 | 0.00 | 0.00 | 68 | 1010.1 |
| 20260509174203 | 82 | 311 | 4.0 | 6.0 | 0.00 | 0.00 | 0.00 | 67 | 1010.2 |
| 20260509173659 | 82 | 305 | 7.0 | 7.0 | 0.00 | 0.00 | 0.00 | 67 | 1010.2 |
| 20260509173155 | 82 | 316 | 4.0 | 8.0 | 0.00 | 0.00 | 0.00 | 67 | 1010.1 |
| 20260509172651 | 82 | 292 | 6.0 | 8.0 | 0.00 | 0.00 | 0.00 | 70 | 1010.3 |
| 20260509172148 | 80 | 301 | 6.0 | 8.0 | 0.00 | 0.00 | 0.00 | 72 | 1010.3 |
| 20260509171643 | 80 | 317 | 3.0 | 11.0 | 0.00 | 0.00 | 0.00 | 71 | 1010.2 |
| 20260509171140 | 80 | 292 | 4.0 | 10.0 | 0.00 | 0.00 | 0.00 | 70 | 1010.4 |
| 20260509170637 | 81 | 323 | 7.0 | 9.0 | 0.00 | 0.00 | 0.00 | 70 | 1010.3 |
| 20260509170133 | 81 | 350 | 1.0 | 7.0 | 0.00 | 0.00 | 0.00 | 74 | 1010.3 |
| 20260509165631 | 81 | 299 | 3.0 | 7.0 | 0.00 | 0.00 | 0.00 | 71 | 1010.4 |
| 20260509165127 | 80 | 304 | 2.0 | 6.0 | 0.00 | 0.00 | 0.00 | 71 | 1010.5 |
| 20260509164623 | 82 | 265 | 1.0 | 3.0 | 0.00 | 0.00 | 0.00 | 70 | 1010.5 |
| 20260509164119 | 81 | 28 | 2.0 | 4.0 | 0.00 | 0.00 | 0.00 | 71 | 1010.6 |
| 20260509163617 | 80 | 322 | 4.0 | 6.0 | 0.00 | 0.00 | 0.00 | 74 | 1010.4 |
| 20260509163112 | 78 | 259 | 2.0 | 8.0 | 0.00 | 0.00 | 0.00 | 75 | 1010.6 |
| 20260509162610 | 80 | 298 | 7.0 | 10.0 | 0.00 | 0.00 | 0.00 | 72 | 1010.5 |
| 20260509162106 | 80 | 313 | 4.0 | 6.0 | 0.00 | 0.00 | 0.00 | 72 | 1010.5 |
| 20260509161602 | 79 | 309 | 2.0 | 3.0 | 0.00 | 0.00 | 0.00 | 74 | 1010.6 |
| 20260509161102 | 79 | 290 | 4.0 | 6.0 | 0.00 | 0.00 | 0.00 | 75 | 1010.6 |
| 20260509160558 | 79 | 256 | 2.0 | 4.0 | 0.00 | 0.00 | 0.00 | 74 | 1010.5 |
| 20260509160054 | 78 | 319 | 2.0 | 7.0 | 0.00 | 0.00 | 0.00 | 75 | 1010.6 |
| 20260509155551 | 79 | 320 | 2.0 | 9.0 | 0.00 | 0.00 | 0.00 | 75 | 1010.6 |
| 20260509155047 | 78 | 328 | 3.0 | 6.0 | 0.00 | 0.00 | 0.00 | 76 | 1010.5 |
| 20260509154543 | 77 | 290 | 2.0 | 9.0 | 0.00 | 0.00 | 0.00 | 76 | 1010.4 |
| 20260509154041 | 77 | 338 | 2.0 | 8.0 | 0.00 | 0.00 | 0.00 | 77 | 1010.4 |
| 20260509153537 | 77 | 339 | 3.0 | 10.0 | 0.00 | 0.00 | 0.00 | 77 | 1010.4 |
| 20260509153034 | 77 | 316 | 2.0 | 6.0 | 0.00 | 0.00 | 0.00 | 77 | 1010.3 |
| 20260509152530 | 77 | 336 | 6.0 | 6.0 | 0.00 | 0.00 | 0.00 | 79 | 1010.3 |
| 20260509152027 | 77 | 296 | 10.0 | 10.0 | 0.00 | 0.00 | 0.00 | 78 | 1010.2 |
| 20260509151523 | 76 | 347 | 2.0 | 6.0 | 0.00 | 0.00 | 0.00 | 79 | 1010.3 |
| 20260509151021 | 75 | 291 | 5.0 | 9.0 | 0.00 | 0.00 | 0.00 | 80 | 1010.2 |
| 20260509150518 | 77 | 337 | 4.0 | 8.0 | 0.00 | 0.00 | 0.00 | 79 | 1010.2 |
| 20260509150017 | 76 | 328 | 3.0 | 13.0 | 0.00 | 0.00 | 0.00 | 80 | 1010.1 |
| 20260509145512 | 76 | 319 | 6.0 | 10.0 | 0.00 | 0.00 | 0.00 | 80 | 1010.0 |
| 20260509145007 | 76 | 316 | 3.0 | 11.0 | 0.00 | 0.00 | 0.00 | 80 | 1010.1 |
| 20260509144505 | 75 | 296 | 7.0 | 14.0 | 0.00 | 0.00 | 0.00 | 80 | 1010.0 |
| 20260509144002 | 75 | 296 | 7.0 | 12.0 | 0.00 | 0.00 | 0.00 | 80 | 1009.9 |
| 20260509143459 | 75 | 331 | 5.0 | 10.0 | 0.00 | 0.00 | 0.00 | 81 | 1010.2 |
| 20260509142955 | 75 | 273 | 9.0 | 9.0 | 0.00 | 0.00 | 0.00 | 81 | 1010.2 |
| 20260509142452 | 75 | 278 | 7.0 | 11.0 | 0.00 | 0.00 | 0.00 | 80 | 1010.0 |
| 20260509141947 | 75 | 307 | 4.0 | 11.0 | 0.00 | 0.00 | 0.00 | 81 | 1010.1 |
| 20260509141444 | 75 | 301 | 5.0 | 7.0 | 0.00 | 0.00 | 0.00 | 80 | 1010.1 |
| 20260509140941 | 75 | 307 | 5.0 | 8.0 | 0.00 | 0.00 | 0.00 | 80 | 1010.2 |
| 20260509140437 | 75 | 305 | 6.0 | 7.0 | 0.00 | 0.00 | 0.00 | 79 | 1010.1 |
| 20260509135936 | 74 | 317 | 3.0 | 6.0 | 0.00 | 0.00 | 0.00 | 83 | 1010.2 |
| 20260509135433 | 74 | 223 | 6.0 | 6.0 | 0.00 | 0.00 | 0.00 | 82 | 1010.1 |
| 20260509134930 | 74 | 328 | 2.0 | 6.0 | 0.00 | 0.00 | 0.00 | 83 | 1010.1 |
| 20260509134427 | 74 | 279 | 4.0 | 5.0 | 0.00 | 0.00 | 0.00 | 82 | 1010.1 |
| 20260509133925 | 74 | 320 | 4.0 | 8.0 | 0.00 | 0.00 | 0.00 | 82 | 1009.9 |
| 20260509133421 | 74 | 284 | 5.0 | 7.0 | 0.00 | 0.00 | 0.00 | 83 | 1009.8 |
| 20260509132920 | 74 | 293 | 3.0 | 6.0 | 0.00 | 0.00 | 0.00 | 84 | 1009.9 |
| 20260509132417 | 74 | 298 | 7.0 | 9.0 | 0.00 | 0.00 | 0.00 | 84 | 1009.9 |
| 20260509131914 | 74 | 260 | 2.0 | 4.0 | 0.00 | 0.00 | 0.00 | 85 | 1009.5 |
| 20260509131411 | 74 | 249 | 2.0 | 6.0 | 0.00 | 0.00 | 0.00 | 87 | 1009.9 |
| 20260509130908 | 73 | 173 | 1.0 | 4.0 | 0.00 | 0.00 | 0.00 | 88 | 1009.8 |
| 20260509130403 | 73 | 135 | 4.0 | 4.0 | 0.00 | 0.00 | 0.00 | 89 | 1009.9 |
| 20260509125900 | 72 | 146 | 5.0 | 6.0 | 0.00 | 0.00 | 0.00 | 91 | 1009.7 |
| 20260509125357 | 71 | 347 | 1.0 | 4.0 | 0.00 | 0.00 | 0.00 | 92 | 1009.8 |
| 20260509124853 | 71 | 160 | 2.0 | 5.0 | 0.00 | 0.00 | 0.00 | 93 | 1009.8 |
| 20260509124350 | 70 | 202 | 2.0 | 4.0 | 0.00 | 0.00 | 0.00 | 94 | 1009.8 |
| 20260509123848 | 70 | 151 | 2.0 | 4.0 | 0.00 | 0.00 | 0.00 | 95 | 1009.8 |
| 20260509123345 | 70 | 141 | 2.0 | 3.0 | 0.00 | 0.00 | 0.00 | 94 | 1009.8 |
| 20260509122840 | 70 | 110 | 2.0 | 3.0 | 0.00 | 0.00 | 0.00 | 94 | 1009.6 |
| 20260509122337 | 70 | 105 | 1.0 | 4.0 | 0.00 | 0.00 | 0.00 | 94 | 1009.7 |
| 20260509121834 | 70 | 146 | 4.0 | 5.0 | 0.00 | 0.00 | 0.00 | 94 | 1009.7 |
| 20260509121332 | 70 | 146 | 4.0 | 5.0 | 0.00 | 0.00 | 0.00 | 94 | 1009.9 |
| 20260509120830 | 70 | 142 | 4.0 | 6.0 | 0.00 | 0.00 | 0.00 | 94 | 1009.8 |
| 20260509120327 | 70 | 162 | 6.0 | 6.0 | 0.00 | 0.00 | 0.00 | 94 | 1009.7 |
| 20260509115825 | 70 | 159 | 4.0 | 7.0 | 0.00 | 0.00 | 0.00 | 94 | 1009.8 |
| 20260509115322 | 70 | 153 | 4.0 | 4.0 | 0.00 | 0.00 | 0.00 | 94 | 1009.8 |
| 20260509114820 | 70 | 151 | 4.0 | 6.0 | 0.00 | 0.00 | 0.00 | 94 | 1009.5 |
| 20260509114318 | 70 | 154 | 4.0 | 7.0 | 0.00 | 0.00 | 0.00 | 94 | 1009.4 |
| 20260509113818 | 70 | 173 | 4.0 | 7.0 | 0.00 | 0.00 | 0.00 | 94 | 1009.5 |
| 20260509113314 | 70 | 145 | 6.0 | 8.0 | 0.00 | 0.00 | 0.00 | 94 | 1009.6 |
| 20260509112810 | 70 | 151 | 5.0 | 6.0 | 0.00 | 0.00 | 0.00 | 94 | 1009.5 |
| 20260509112308 | 70 | 152 | 4.0 | 4.0 | 0.00 | 0.00 | 0.00 | 94 | 1009.5 |
| 20260509111805 | 70 | 156 | 2.0 | 4.0 | 0.00 | 0.00 | 0.00 | 94 | 1009.3 |
| 20260509111301 | 70 | 194 | 2.0 | 3.0 | 0.00 | 0.00 | 0.00 | 94 | 1009.4 |
| 20260509110759 | 70 | 237 | 2.0 | 3.0 | 0.00 | 0.00 | 0.00 | 94 | 1009.3 |
| 20260509110255 | 70 | 183 | 4.0 | 4.0 | 0.00 | 0.00 | 0.00 | 94 | 1009.3 |
| 20260509105753 | 70 | 150 | 4.0 | 4.0 | 0.00 | 0.00 | 0.00 | 93 | 1009.4 |
| 20260509105251 | 70 | 231 | 2.0 | 3.0 | 0.00 | 0.00 | 0.00 | 93 | 1009.3 |
| 20260509104747 | 70 | 288 | 1.0 | 2.0 | 0.00 | 0.00 | 0.00 | 94 | 1009.4 |
| 20260509104244 | 70 | 280 | 2.0 | 3.0 | 0.00 | 0.00 | 0.00 | 93 | 1009.2 |
| 20260509103743 | 70 | 279 | 3.0 | 4.0 | 0.00 | 0.00 | 0.00 | 94 | 1009.0 |
| 20260509103239 | 70 | 289 | 2.0 | 3.0 | 0.00 | 0.00 | 0.00 | 94 | 1009.1 |
| 20260509102738 | 70 | 10 | 0.0 | 0.0 | 0.00 | 0.00 | 0.00 | 94 | 1008.7 |
| 20260509102234 | 70 | 63 | 0.0 | 0.0 | 0.00 | 0.00 | 0.00 | 94 | 1008.5 |
| 20260509101731 | 70 | 208 | 0.0 | 2.0 | 0.00 | 0.00 | 0.00 | 94 | 1008.4 |
| 20260509101227 | 70 | 164 | 0.0 | 2.0 | 0.00 | 0.00 | 0.00 | 94 | 1008.6 |
| 20260509100725 | 70 | 210 | 2.0 | 4.0 | 0.00 | 0.00 | 0.00 | 94 | 1008.5 |
| 20260509100222 | 70 | 250 | 4.0 | 6.0 | 0.00 | 0.00 | 0.00 | 94 | 1008.5 |
| 20260509095718 | 70 | 173 | 4.0 | 11.0 | 0.00 | 0.00 | 0.00 | 94 | 1007.7 |
| 20260509095216 | 70 | 145 | 9.0 | 13.0 | 0.00 | 0.00 | 0.00 | 94 | 1007.1 |
| 20260509094713 | 70 | 123 | 10.0 | 13.0 | 0.00 | 0.00 | 0.00 | 94 | 1007.1 |
| 20260509094209 | 69 | 140 | 10.0 | 14.0 | 0.00 | 0.00 | 0.00 | 94 | 1007.5 |
| 20260509093708 | 69 | 139 | 6.0 | 16.0 | 0.00 | 0.00 | 0.00 | 94 | 1007.2 |
| 20260509093204 | 69 | 157 | 9.0 | 12.0 | 0.00 | 0.00 | 0.00 | 94 | 1007.1 |
| 20260509092703 | 69 | 127 | 7.0 | 16.0 | 0.00 | 0.00 | 0.00 | 94 | 1006.7 |
| 20260509092200 | 69 | 125 | 9.0 | 17.0 | 0.00 | 0.00 | 0.00 | 94 | 1006.9 |
| 20260509091659 | 69 | 132 | 13.0 | 17.0 | 0.00 | 0.00 | 0.00 | 94 | 1006.9 |
| 20260509091154 | 69 | 132 | 11.0 | 15.0 | 0.00 | 0.00 | 0.00 | 94 | 1006.9 |
| 20260509090652 | 69 | 132 | 12.0 | 15.0 | 0.00 | 0.00 | 0.00 | 93 | 1007.1 |
| 20260509090149 | 69 | 120 | 8.0 | 17.0 | 0.00 | 0.00 | 0.00 | 93 | 1007.3 |
| 20260509085647 | 69 | 127 | 9.0 | 12.0 | 0.00 | 0.00 | 0.00 | 93 | 1007.9 |
| 20260509085143 | 69 | 136 | 7.0 | 12.0 | 0.00 | 0.00 | 0.00 | 93 | 1008.0 |
| 20260509084640 | 69 | 140 | 7.0 | 11.0 | 0.00 | 0.00 | 0.00 | 92 | 1008.4 |
| 20260509084137 | 69 | 124 | 8.0 | 13.0 | 0.00 | 0.00 | 0.00 | 92 | 1008.6 |
| 20260509083634 | 69 | 131 | 5.0 | 11.0 | 0.00 | 0.00 | 0.00 | 92 | 1008.8 |
| 20260509083131 | 69 | 144 | 4.0 | 11.0 | 0.00 | 0.00 | 0.00 | 91 | 1008.8 |
| 20260509082628 | 69 | 156 | 8.0 | 11.0 | 0.00 | 0.00 | 0.00 | 91 | 1009.3 |
| 20260509082125 | 70 | 143 | 14.0 | 14.0 | 0.00 | 0.00 | 0.00 | 91 | 1009.6 |
| 20260509081622 | 70 | 135 | 8.0 | 10.0 | 0.00 | 0.00 | 0.00 | 90 | 1009.6 |
| 20260509081119 | 70 | 155 | 5.0 | 6.0 | 0.00 | 0.00 | 0.00 | 90 | 1010.0 |
| 20260509080617 | 70 | 186 | 2.0 | 4.0 | 0.00 | 0.00 | 0.00 | 90 | 1010.2 |
| 20260509080115 | 70 | 171 | 4.0 | 6.0 | 0.00 | 0.00 | 0.00 | 90 | 1010.0 |
| 20260509075612 | 70 | 155 | 5.0 | 5.0 | 0.00 | 0.00 | 0.00 | 90 | 1010.1 |
| 20260509075110 | 70 | 137 | 0.0 | 2.0 | 0.00 | 0.00 | 0.00 | 90 | 1010.2 |
| 20260509074607 | 70 | 170 | 0.0 | 2.0 | 0.00 | 0.00 | 0.00 | 90 | 1010.2 |
| 20260509074103 | 70 | 136 | 1.0 | 2.0 | 0.00 | 0.00 | 0.00 | 90 | 1010.6 |
| 20260509073600 | 70 | 187 | 0.0 | 2.0 | 0.00 | 0.00 | 0.00 | 90 | 1010.5 |
| 20260509073056 | 70 | 143 | 2.0 | 3.0 | 0.00 | 0.00 | 0.00 | 89 | 1010.7 |
| 20260509072553 | 70 | 243 | 0.0 | 2.0 | 0.00 | 0.00 | 0.00 | 90 | 1010.6 |
| 20260509072050 | 70 | 209 | 3.0 | 3.0 | 0.00 | 0.00 | 0.00 | 90 | 1010.6 |
| 20260509071546 | 70 | 130 | 3.0 | 3.0 | 0.00 | 0.00 | 0.00 | 90 | 1010.1 |
| 20260509071044 | 69 | 155 | 3.0 | 5.0 | 0.00 | 0.00 | 0.00 | 90 | 1009.9 |
| 20260509070541 | 69 | 154 | 5.0 | 8.0 | 0.00 | 0.00 | 0.00 | 89 | 1009.9 |
| 20260509070037 | 69 | 151 | 5.0 | 6.0 | 0.00 | 0.00 | 0.00 | 89 | 1009.9 |
| 20260509065532 | 69 | 153 | 4.0 | 5.0 | 0.00 | 0.00 | 0.00 | 89 | 1009.7 |
| 20260509065029 | 69 | 147 | 3.0 | 4.0 | 0.00 | 0.00 | 0.00 | 89 | 1009.9 |
| 20260509064527 | 70 | 137 | 3.0 | 5.0 | 0.00 | 0.00 | 0.00 | 88 | 1009.8 |
| 20260509064025 | 70 | 124 | 2.0 | 6.0 | 0.00 | 0.00 | 0.00 | 88 | 1009.5 |
| 20260509063520 | 70 | 150 | 4.0 | 5.0 | 0.00 | 0.00 | 0.00 | 87 | 1010.0 |
| 20260509063017 | 70 | 170 | 2.0 | 2.0 | 0.00 | 0.00 | 0.00 | 87 | 1010.1 |
| 20260509062514 | 71 | 147 | 3.0 | 5.0 | 0.00 | 0.00 | 0.00 | 86 | 1010.1 |
| 20260509062012 | 71 | 128 | 3.0 | 5.0 | 0.00 | 0.00 | 0.00 | 85 | 1010.3 |
| 20260509061509 | 71 | 231 | 2.0 | 3.0 | 0.00 | 0.00 | 0.00 | 85 | 1010.4 |
| 20260509061006 | 71 | 276 | 1.0 | 3.0 | 0.00 | 0.00 | 0.00 | 85 | 1010.4 |
| 20260509060503 | 71 | 159 | 4.0 | 6.0 | 0.00 | 0.00 | 0.00 | 86 | 1009.9 |
| 20260509055959 | 71 | 172 | 3.0 | 5.0 | 0.00 | 0.00 | 0.00 | 84 | 1010.3 |
| 20260509055454 | 71 | 274 | 0.0 | 1.0 | 0.00 | 0.00 | 0.00 | 85 | 1010.9 |
| 20260509054951 | 71 | 166 | 2.0 | 2.0 | 0.00 | 0.00 | 0.00 | 84 | 1010.6 |
| 20260509054448 | 71 | 131 | 0.0 | 1.0 | 0.00 | 0.00 | 0.00 | 84 | 1011.0 |
| 20260509053946 | 71 | 297 | 0.0 | 0.0 | 0.00 | 0.00 | 0.00 | 84 | 1011.1 |
| 20260509053444 | 71 | 87 | 0.0 | 3.0 | 0.00 | 0.00 | 0.00 | 84 | 1010.8 |
| 20260509052941 | 71 | 58 | 2.0 | 4.0 | 0.00 | 0.00 | 0.00 | 84 | 1010.4 |
| 20260509052438 | 71 | 137 | 6.0 | 7.0 | 0.00 | 0.00 | 0.00 | 84 | 1010.2 |
| 20260509051936 | 72 | 159 | 3.0 | 5.0 | 0.00 | 0.00 | 0.00 | 84 | 1010.3 |
| 20260509051434 | 72 | 138 | 2.0 | 7.0 | 0.00 | 0.00 | 0.00 | 83 | 1010.0 |
| 20260509050931 | 72 | 156 | 9.0 | 11.0 | 0.00 | 0.00 | 0.00 | 83 | 1009.6 |
| 20260509050427 | 72 | 160 | 5.0 | 6.0 | 0.00 | 0.00 | 0.00 | 83 | 1010.0 |
| 20260509045924 | 72 | 156 | 6.0 | 9.0 | 0.00 | 0.00 | 0.00 | 83 | 1009.7 |
| 20260509045421 | 72 | 138 | 8.0 | 11.0 | 0.00 | 0.00 | 0.00 | 84 | 1009.3 |
| 20260509044918 | 72 | 138 | 9.0 | 13.0 | 0.00 | 0.00 | 0.00 | 83 | 1009.2 |
| 20260509044416 | 72 | 134 | 8.0 | 8.0 | 0.00 | 0.00 | 0.00 | 82 | 1009.8 |
| 20260509043913 | 72 | 116 | 4.0 | 5.0 | 0.00 | 0.00 | 0.00 | 83 | 1010.1 |
| 20260509043408 | 72 | 137 | 4.0 | 5.0 | 0.00 | 0.00 | 0.00 | 82 | 1010.2 |
| 20260509042904 | 73 | 124 | 2.0 | 3.0 | 0.00 | 0.00 | 0.00 | 81 | 1010.4 |
| 20260509042401 | 73 | 159 | 3.0 | 3.0 | 0.00 | 0.00 | 0.00 | 80 | 1010.7 |
| 20260509041857 | 73 | 237 | 2.0 | 2.0 | 0.00 | 0.00 | 0.00 | 80 | 1010.5 |
| 20260509041354 | 73 | 212 | 0.0 | 2.0 | 0.00 | 0.00 | 0.00 | 81 | 1010.6 |
| 20260509040853 | 73 | 110 | 0.0 | 2.0 | 0.00 | 0.00 | 0.00 | 81 | 1010.6 |
| 20260509040350 | 73 | 109 | 2.0 | 5.0 | 0.00 | 0.00 | 0.00 | 81 | 1010.5 |
| 20260509035847 | 73 | 144 | 4.0 | 5.0 | 0.00 | 0.00 | 0.00 | 81 | 1010.3 |
| 20260509035344 | 73 | 141 | 2.0 | 4.0 | 0.00 | 0.00 | 0.00 | 81 | 1010.3 |
| 20260509034840 | 73 | 151 | 2.0 | 4.0 | 0.00 | 0.00 | 0.00 | 81 | 1010.3 |
| 20260509034338 | 73 | 176 | 3.0 | 4.0 | 0.00 | 0.00 | 0.00 | 81 | 1010.0 |
| 20260509033834 | 73 | 126 | 4.0 | 5.0 | 0.00 | 0.00 | 0.00 | 81 | 1010.1 |
| 20260509033332 | 73 | 142 | 2.0 | 3.0 | 0.00 | 0.00 | 0.00 | 81 | 1009.7 |
| 20260509032828 | 73 | 139 | 3.0 | 6.0 | 0.00 | 0.00 | 0.00 | 81 | 1009.8 |
| 20260509032326 | 73 | 158 | 3.0 | 4.0 | 0.00 | 0.00 | 0.00 | 81 | 1009.9 |
| 20260509031824 | 73 | 138 | 4.0 | 4.0 | 0.00 | 0.00 | 0.00 | 81 | 1009.8 |
| 20260509031321 | 72 | 144 | 3.0 | 3.0 | 0.00 | 0.00 | 0.00 | 81 | 1009.8 |
| 20260509030818 | 72 | 139 | 3.0 | 6.0 | 0.00 | 0.00 | 0.00 | 80 | 1009.7 |
| 20260509030316 | 72 | 131 | 4.0 | 4.0 | 0.00 | 0.00 | 0.00 | 80 | 1009.5 |
| 20260509025813 | 72 | 109 | 2.0 | 4.0 | 0.00 | 0.00 | 0.00 | 80 | 1009.8 |
| 20260509025308 | 72 | 118 | 3.0 | 4.0 | 0.00 | 0.00 | 0.00 | 80 | 1009.5 |
| 20260509024804 | 72 | 132 | 4.0 | 4.0 | 0.00 | 0.00 | 0.00 | 80 | 1009.5 |
| 20260509024300 | 72 | 148 | 5.0 | 6.0 | 0.00 | 0.00 | 0.00 | 80 | 1009.4 |
| 20260509023757 | 72 | 135 | 5.0 | 7.0 | 0.00 | 0.00 | 0.00 | 79 | 1009.0 |
| 20260509023255 | 72 | 139 | 5.0 | 10.0 | 0.00 | 0.00 | 0.00 | 79 | 1009.0 |
| 20260509022750 | 72 | 134 | 6.0 | 8.0 | 0.00 | 0.00 | 0.00 | 78 | 1009.0 |
| 20260509022248 | 73 | 134 | 6.0 | 8.0 | 0.00 | 0.00 | 0.00 | 78 | 1009.1 |
| 20260509021745 | 73 | 140 | 3.0 | 5.0 | 0.00 | 0.00 | 0.00 | 78 | 1009.1 |
| 20260509021242 | 73 | 137 | 4.0 | 6.0 | 0.00 | 0.00 | 0.00 | 78 | 1009.2 |
| 20260509020740 | 73 | 127 | 4.0 | 7.0 | 0.00 | 0.00 | 0.00 | 77 | 1009.1 |
| 20260509020237 | 73 | 143 | 2.0 | 6.0 | 0.00 | 0.00 | 0.00 | 78 | 1009.0 |
| 20260509015735 | 73 | 141 | 3.0 | 6.0 | 0.00 | 0.00 | 0.00 | 77 | 1009.0 |
| 20260509015233 | 73 | 159 | 3.0 | 5.0 | 0.00 | 0.00 | 0.00 | 76 | 1009.2 |
| 20260509014729 | 73 | 142 | 2.0 | 6.0 | 0.00 | 0.00 | 0.00 | 76 | 1009.1 |
| 20260509014226 | 73 | 158 | 6.0 | 7.0 | 0.00 | 0.00 | 0.00 | 76 | 1008.9 |
| 20260509013723 | 73 | 128 | 4.0 | 6.0 | 0.00 | 0.00 | 0.00 | 77 | 1008.9 |
| 20260509013218 | 73 | 159 | 5.0 | 6.0 | 0.00 | 0.00 | 0.00 | 76 | 1008.9 |
| 20260509012715 | 73 | 141 | 3.0 | 6.0 | 0.00 | 0.00 | 0.00 | 77 | 1008.9 |
| 20260509012212 | 73 | 154 | 3.0 | 5.0 | 0.00 | 0.00 | 0.00 | 78 | 1008.6 |
| 20260509011710 | 73 | 149 | 4.0 | 7.0 | 0.00 | 0.00 | 0.00 | 78 | 1008.5 |
| 20260509011207 | 73 | 131 | 4.0 | 6.0 | 0.00 | 0.00 | 0.00 | 78 | 1008.4 |
| 20260509010705 | 73 | 131 | 4.0 | 6.0 | 0.00 | 0.00 | 0.00 | 78 | 1008.3 |
| 20260509010201 | 73 | 151 | 6.0 | 8.0 | 0.00 | 0.00 | 0.00 | 77 | 1008.2 |
| 20260509005659 | 73 | 114 | 2.0 | 5.0 | 0.00 | 0.00 | 0.00 | 78 | 1008.2 |
| 20260509005155 | 73 | 113 | 4.0 | 8.0 | 0.00 | 0.00 | 0.00 | 77 | 1008.1 |
| 20260509004650 | 73 | 153 | 6.0 | 7.0 | 0.00 | 0.00 | 0.00 | 77 | 1008.2 |
| 20260509004148 | 73 | 123 | 6.0 | 8.0 | 0.00 | 0.00 | 0.00 | 76 | 1008.2 |
| 20260509003646 | 73 | 116 | 3.0 | 6.0 | 0.00 | 0.00 | 0.00 | 77 | 1008.1 |
| 20260509003143 | 73 | 131 | 7.0 | 13.0 | 0.00 | 0.00 | 0.00 | 76 | 1008.2 |
| 20260509002641 | 73 | 146 | 6.0 | 7.0 | 0.00 | 0.00 | 0.00 | 76 | 1008.4 |
| 20260509002138 | 74 | 118 | 3.0 | 5.0 | 0.00 | 0.00 | 0.00 | 76 | 1008.2 |
| 20260509001636 | 73 | 138 | 4.0 | 6.0 | 0.00 | 0.00 | 0.00 | 75 | 1008.2 |
| 20260509001131 | 74 | 134 | 5.0 | 5.0 | 0.00 | 0.00 | 0.00 | 76 | 1008.3 |
| 20260509000629 | 74 | 140 | 4.0 | 6.0 | 0.00 | 0.00 | 0.00 | 76 | 1008.4 |
| 20260509000126 | 73 | 150 | 6.0 | 8.0 | 0.00 | 0.00 | 0.00 | 75 | 1008.5 |
| 20260508235623 | 73 | 145 | 4.0 | 8.0 | 0.00 | 0.00 | 0.00 | 75 | 1008.6 |
| 20260508235119 | 74 | 161 | 4.0 | 6.0 | 0.00 | 0.00 | 0.00 | 75 | 1008.6 |
| 20260508234617 | 74 | 161 | 9.0 | 10.0 | 0.00 | 0.00 | 0.00 | 74 | 1008.7 |
| 20260508234113 | 74 | 131 | 4.0 | 10.0 | 0.00 | 0.00 | 0.00 | 74 | 1008.6 |
| 20260508233613 | 74 | 128 | 3.0 | 6.0 | 0.00 | 0.00 | 0.00 | 74 | 1008.8 |
| 20260508233110 | 73 | 156 | 7.0 | 7.0 | 0.00 | 0.00 | 0.00 | 74 | 1008.7 |
| 20260508232607 | 74 | 127 | 4.0 | 6.0 | 0.00 | 0.00 | 0.00 | 73 | 1008.7 |
| 20260508232103 | 74 | 104 | 3.0 | 7.0 | 0.00 | 0.00 | 0.00 | 74 | 1008.5 |
| 20260508231601 | 74 | 152 | 4.0 | 7.0 | 0.00 | 0.00 | 0.00 | 74 | 1008.7 |
| 20260508231058 | 74 | 136 | 4.0 | 5.0 | 0.00 | 0.00 | 0.00 | 73 | 1008.6 |
| 20260508230554 | 73 | 202 | 2.0 | 5.0 | 0.00 | 0.00 | 0.00 | 73 | 1008.8 |
| 20260508230051 | 73 | 164 | 2.0 | 5.0 | 0.00 | 0.00 | 0.00 | 73 | 1008.6 |
| 20260508225549 | 73 | 100 | 3.0 | 4.0 | 0.00 | 0.00 | 0.00 | 73 | 1008.8 |
| 20260508225045 | 73 | 142 | 5.0 | 8.0 | 0.00 | 0.00 | 0.00 | 72 | 1009.0 |
| 20260508224543 | 73 | 152 | 4.0 | 6.0 | 0.00 | 0.00 | 0.00 | 72 | 1008.8 |
| 20260508224040 | 73 | 145 | 7.0 | 7.0 | 0.00 | 0.00 | 0.00 | 71 | 1009.0 |
| 20260508223538 | 73 | 140 | 6.0 | 7.0 | 0.00 | 0.00 | 0.00 | 71 | 1009.0 |